sat.trackr.live / text

‹ back to catalog

STARLINK-35806

NORAD 66363 · 2025-254R

PAYLOAD ACTIVE UNKNOWN

§ Identity

Operator
Country
US
Launch date
2025-11-06
Launch site
AFWTR
Launch vehicle
Mass (kg)
RCS (m²)

Purposes: comms

External: N2YO · Heavens-Above · Gunter

§ Orbital elements

Epoch: 2026-09-20T13:10:38.768448Z

Period
93.85 min
Inclination
53.1581°
Eccentricity
0.0001095
Mean motion
15.34411594 rev/d
Perigee alt
461.9 km
Apogee alt
463.4 km
Semi-major
6,840.8 km
B*
7.7019e-4
RAAN
45.6402°
Arg perigee
119.1244°
Mean anomaly
240.9868°
Rev number
4,883

§ Raw data

STARLINK-358061 66363U 25254R   26263.54905982  .00025745  00000+0  77019-3 0  99922 66363  53.1581  45.6402 0001095 119.1244 240.9868 15.34411594 48834

JSON: /api/v1/satellites/66363 · /tle

For live sub-satellite position, see the globe view (requires WebGL).

§ Visibility from observer

Set your observer location to see the next 7 days of passes ≥ 10°. The values pass through the URL so the page stays shareable.

No JS? Fill the form by hand. The geolocation button needs JavaScript.